When you browse on this site, cookies collect data to enhance your experience and personalize the content and advertising you see.
Visit our Privacy Policy to learn more. By continuing to use the site, you agree to this use of cookies and data.
  • In Latvia
  • List of Countries
  • For 7 days
  • Water Temperature
  • Satellite Maps
  • Weather Map
  • Weather Widgets
  • user-avatar
    Login

    Hourly Weather Punakha

    Today, 10 December, Monday

    Time Temperature Precipitation Wind Pressure Humidity
    00:00 +6°C° 0 mm 1 mps 580 mmHg 78%
    01:00 +6°C° 0 mm 1 mps 580 mmHg 77%
    02:00 +5°C° 0 mm 1 mps 580 mmHg 76%
    03:00 +4°C° 0 mm 2 mps 579 mmHg 75%
    04:00 +4°C° 0 mm 2 mps 580 mmHg 75%
    05:00 +4°C° 0 mm 2 mps 580 mmHg 75%
    06:00 +4°C° 0 mm 1 mps 580 mmHg 72%
    07:00 +5°C° 0 mm 2 mps 581 mmHg 65%
    08:00 +7°C° 0 mm 2 mps 582 mmHg 59%
    09:00 +9°C° 0 mm 2 mps 583 mmHg 53%
    10:00 +10°C° 0 mm 2 mps 583 mmHg 50%
    11:00 +11°C° 0 mm 3 mps 583 mmHg 48%
    12:00 +12°C° 0 mm 3 mps 583 mmHg 46%
    13:00 +12°C° 0.1 mm 3 mps 583 mmHg 48%
    14:00 +12°C° 0.1 mm 3 mps 582 mmHg 51%
    15:00 +11°C° 0.1 mm 3 mps 582 mmHg 54%
    16:00 +9°C° 0.1 mm 3 mps 581 mmHg 63%
    17:00 +8°C° 0.1 mm 2 mps 581 mmHg 73%
    18:00 +6°C° 0.1 mm 2 mps 580 mmHg 82%
    19:00 +5°C° 0 mm 2 mps 581 mmHg 80%
    20:00 +5°C° 0 mm 2 mps 581 mmHg 78%
    21:00 +4°C° 0 mm 2 mps 581 mmHg 77%
    22:00 +4°C° 0 mm 2 mps 581 mmHg 74%
    23:00 +4°C° 0 mm 2 mps 581 mmHg 71%

    Tomorrow, 11 December, Tuesday

    Time Temperature Precipitation Wind Pressure Humidity
    00:00 +3°C° 0 mm 2 mps 581 mmHg 67%
    01:00 +3°C° 0 mm 2 mps 580 mmHg 63%
    02:00 +3°C° 0 mm 2 mps 580 mmHg 59%
    03:00 +3°C° 0 mm 2 mps 580 mmHg 55%
    04:00 +2°C° 0 mm 2 mps 580 mmHg 54%
    05:00 +2°C° 0 mm 2 mps 580 mmHg 52%
    06:00 +2°C° 0 mm 2 mps 580 mmHg 50%
    07:00 +4°C° 0 mm 2 mps 581 mmHg 46%
    08:00 +6°C° 0 mm 2 mps 582 mmHg 42%
    09:00 +8°C° 0 mm 2 mps 583 mmHg 38%
    10:00 +9°C° 0 mm 2 mps 583 mmHg 35%
    11:00 +10°C° 0 mm 3 mps 583 mmHg 33%
    12:00 +12°C° 0 mm 3 mps 583 mmHg 30%
    13:00 +11°C° 0 mm 3 mps 583 mmHg 33%
    14:00 +10°C° 0 mm 3 mps 582 mmHg 37%
    15:00 +10°C° 0 mm 3 mps 581 mmHg 40%
    16:00 +8°C° 0 mm 3 mps 581 mmHg 49%
    17:00 +5°C° 0 mm 3 mps 580 mmHg 58%
    18:00 +4°C° 0 mm 2 mps 580 mmHg 68%
    19:00 +3°C° 0 mm 2 mps 580 mmHg 66%
    20:00 +3°C° 0 mm 2 mps 580 mmHg 63%
    21:00 +2°C° 0 mm 2 mps 580 mmHg 61%
    22:00 +2°C° 0 mm 2 mps 580 mmHg 59%
    23:00 +2°C° 0 mm 2 mps 580 mmHg 56%

    Day after tomorrow, 12 December, Wednesday

    Time Temperature Precipitation Wind Pressure Humidity
    00:00 +1°C° 0 mm 2 mps 580 mmHg 53%
    01:00 +1°C° 0 mm 2 mps 580 mmHg 52%
    02:00 +1°C° 0 mm 2 mps 580 mmHg 50%
    03:00 +1°C° 0 mm 2 mps 580 mmHg 48%
    04:00 +1°C° 0 mm 2 mps 580 mmHg 47%
    05:00 +1°C° 0 mm 2 mps 580 mmHg 46%
    06:00 -1°C° 0 mm 2 mps 580 mmHg 45%
    07:00 +3°C° 0 mm 2 mps 581 mmHg 40%
    08:00 +5°C° 0 mm 2 mps 583 mmHg 35%
    09:00 +7°C° 0 mm 2 mps 584 mmHg 31%
    10:00 +9°C° 0 mm 2 mps 584 mmHg 29%
    11:00 +10°C° 0 mm 2 mps 584 mmHg 27%
    12:00 +12°C° 0 mm 3 mps 584 mmHg 25%
    13:00 +11°C° 0 mm 3 mps 584 mmHg 27%
    14:00 +11°C° 0 mm 3 mps 583 mmHg 29%
    15:00 +11°C° 0 mm 3 mps 582 mmHg 32%
    16:00 +9°C° 0 mm 3 mps 582 mmHg 41%
    17:00 +6°C° 0 mm 2 mps 581 mmHg 50%
    18:00 +4°C° 0 mm 2 mps 580 mmHg 59%
    19:00 +3°C° 0 mm 2 mps 581 mmHg 58%
    20:00 +3°C° 0 mm 2 mps 581 mmHg 57%
    21:00 +3°C° 0 mm 2 mps 582 mmHg 56%
    22:00 +3°C° 0 mm 2 mps 582 mmHg 55%
    23:00 +2°C° 0 mm 2 mps 582 mmHg 54%

    13 December, Thursday

    Time Temperature Precipitation Wind Pressure Humidity
    00:00 +2°C° 0 mm 2 mps 582 mmHg 54%
    01:00 +2°C° 0 mm 2 mps 581 mmHg 53%
    02:00 +2°C° 0 mm 2 mps 581 mmHg 52%
    03:00 +2°C° 0 mm 2 mps 581 mmHg 51%
    04:00 +2°C° 0 mm 2 mps 581 mmHg 50%
    05:00 +1°C° 0 mm 2 mps 581 mmHg 48%
    06:00 +1°C° 0 mm 2 mps 581 mmHg 46%
    07:00 +4°C° 0 mm 2 mps 583 mmHg 41%
    08:00 +6°C° 0 mm 2 mps 584 mmHg 36%
    09:00 +8°C° 0 mm 2 mps 585 mmHg 31%
    10:00 +9°C° 0 mm 3 mps 585 mmHg 29%
    11:00 +11°C° 0 mm 3 mps 585 mmHg 27%
    12:00 +12°C° 0 mm 3 mps 585 mmHg 26%
    13:00 +12°C° 0 mm 3 mps 584 mmHg 28%
    14:00 +11°C° 0 mm 3 mps 583 mmHg 30%
    15:00 +11°C° 0 mm 3 mps 583 mmHg 32%
    16:00 +8°C° 0 mm 3 mps 582 mmHg 41%
    17:00 +5°C° 0 mm 3 mps 581 mmHg 49%
    18:00 +3°C° 0 mm 2 mps 581 mmHg 58%
    19:00 +3°C° 0 mm 2 mps 581 mmHg 55%
    20:00 +3°C° 0 mm 2 mps 582 mmHg 52%
    21:00 +2°C° 0 mm 2 mps 582 mmHg 49%
    22:00 +2°C° 0 mm 2 mps 582 mmHg 48%
    23:00 +2°C° 0 mm 2 mps 582 mmHg 46%

    14 December, Friday

    Time Temperature Precipitation Wind Pressure Humidity
    00:00 +2°C° 0 mm 2 mps 582 mmHg 44%
    01:00 +1°C° 0 mm 2 mps 582 mmHg 42%
    02:00 +1°C° 0 mm 2 mps 581 mmHg 41%
    03:00 +1°C° 0 mm 2 mps 581 mmHg 40%
    04:00 +1°C° 0 mm 2 mps 581 mmHg 37%
    05:00 +1°C° 0 mm 2 mps 581 mmHg 35%
    06:00 +1°C° 0 mm 2 mps 582 mmHg 33%
    07:00 +3°C° 0 mm 2 mps 583 mmHg 29%
    08:00 +5°C° 0 mm 2 mps 584 mmHg 25%
    09:00 +8°C° 0 mm 2 mps 585 mmHg 21%
    10:00 +9°C° 0 mm 3 mps 585 mmHg 20%
    11:00 +11°C° 0 mm 3 mps 585 mmHg 19%
    12:00 +12°C° 0 mm 3 mps 585 mmHg 18%
    13:00 +12°C° 0 mm 3 mps 584 mmHg 20%
    14:00 +11°C° 0 mm 3 mps 584 mmHg 22%
    15:00 +11°C° 0 mm 3 mps 583 mmHg 24%
    16:00 +9°C° 0 mm 3 mps 583 mmHg 31%
    17:00 +5°C° 0 mm 3 mps 582 mmHg 38%
    18:00 +3°C° 0 mm 2 mps 582 mmHg 44%
    19:00 +3°C° 0 mm 2 mps 582 mmHg 42%
    20:00 +3°C° 0 mm 2 mps 583 mmHg 41%
    21:00 +2°C° 0 mm 2 mps 583 mmHg 39%
    22:00 +2°C° 0 mm 2 mps 583 mmHg 38%
    23:00 +2°C° 0 mm 2 mps 583 mmHg 36%

    15 December, Saturday

    Time Temperature Precipitation Wind Pressure Humidity
    00:00 +2°C° 0 mm 2 mps 583 mmHg 35%
    01:00 +2°C° 0 mm 2 mps 583 mmHg 33%
    02:00 +1°C° 0 mm 2 mps 582 mmHg 31%
    03:00 +1°C° 0 mm 2 mps 582 mmHg 29%
    04:00 +1°C° 0 mm 2 mps 582 mmHg 27%
    05:00 +1°C° 0 mm 2 mps 582 mmHg 25%
    06:00 +1°C° 0 mm 2 mps 583 mmHg 23%
    07:00 +4°C° 0 mm 2 mps 584 mmHg 21%
    08:00 +6°C° 0 mm 2 mps 585 mmHg 18%
    09:00 +9°C° 0 mm 2 mps 586 mmHg 16%
    10:00 +10°C° 0 mm 2 mps 587 mmHg 15%
    11:00 +13°C° 0 mm 2 mps 587 mmHg 15%
    12:00 +15°C° 0 mm 2 mps 587 mmHg 15%
    13:00 +14°C° 0 mm 2 mps 586 mmHg 17%
    14:00 +14°C° 0 mm 2 mps 586 mmHg 19%
    15:00 +14°C° 0 mm 2 mps 585 mmHg 21%
    16:00 +10°C° 0 mm 2 mps 585 mmHg 27%
    17:00 +7°C° 0 mm 2 mps 584 mmHg 34%
    18:00 +6°C° 0 mm 1 mps 583 mmHg 41%
    19:00 +6°C° 0 mm 1 mps 584 mmHg 38%
    20:00 +4°C° 0 mm 2 mps 584 mmHg 35%
    21:00 +4°C° 0 mm 2 mps 584 mmHg 32%
    22:00 +4°C° 0 mm 2 mps 584 mmHg 31%
    23:00 +4°C° 0 mm 2 mps 584 mmHg 29%
    Show more